Regional Weather Roundup
Issued by NWS

Home | Current Version | Previous Version | Graphics & Text | Print | Product List | Glossary On
Versions: 1 2 3 4 5 6 7 8 9 10 11 12 13 14 15 16 17 18 19 20 21 22 23 24 25 26 27 28
000
ASUS45 KCYS 291710
RWRWY

WYOMING REGIONAL WEATHER ROUNDUP
NATIONAL WEATHER SERVICE CHEYENNE WY
1100 AM MDT WED OCT 29 2014

NOTE:  "FAIR" INDICATES FEW OR NO CLOUDS BELOW 12,000 FEET
WITH NO SIGNIFICANT WEATHER AND/OR OBSTRUCTIONS TO VISIBILITY.

WYZ001-291800-
YELLOWSTONE NATIONAL PARK

CITY           SKY/WX    TMP DP  RH WIND       PRES   REMARKS
LK YELLOWSTONE   N/A     36  19  50 VRB7      30.26  WCI  30
W YELLOWSTONE  NOT AVBL

$$
WYZ002>013-054>058-071-098>099-291800-
NORTHERN WYOMING

CITY           SKY/WX    TMP DP  RH WIND       PRES   REMARKS
JACKSON        MOSUNNY   37  25  60 CALM      30.27F
CODY           SUNNY     54  25  32 SW13G36   30.10S
GREYBULL       MOSUNNY   38  16  40 S5        30.12S WCI  34
WORLAND        MOSUNNY   43  16  33 S7        30.13S
SHERIDAN       PTSUNNY   55  24  30 N6        30.04R
BUFFALO        CLOUDY    57  24  28 N7        30.06R
GILLETTE       MOSUNNY   55  20  25 W18       30.02R
HULETT         CLOUDY    50  23  34 W8        30.01F
NEWCASTLE      FAIR      50  16  25 CALM      30.04F

$$
WYZ014>020-022>026-101>103-291800-
CENTRAL WYOMING

CITY           SKY/WX    TMP DP  RH WIND       PRES   REMARKS
BIG PINEY      SUNNY     36  17  46 E5        30.31S WCI  32
PINEDALE       CLOUDY    36  21  55 NW6       30.32  WCI  31
DUBOIS         CLOUDY    45  23  42 NW12G30   30.20F
LANDER         SUNNY     52  18  26 E6        30.14S
RIVERTON       SUNNY     49  17  28 SW9       30.16S
CASPER         SUNNY     53  12  19 SW26G32   30.12S
DOUGLAS        SUNNY     61  14  16 W23G30    30.06F

$$
WYZ021-027>030-104>119-291800-
SOUTHERN WYOMING

CITY           SKY/WX    TMP DP  RH WIND       PRES   REMARKS
EVANSTON       MOSUNNY   49  14  24 SW20      30.34R
KEMMERER       SUNNY     45  14  29 SW18      30.32S
FORT BRIDGER   FAIR      54  18  23 W21       30.35S
ROCK SPRINGS   SUNNY    N/A N/A N/A MISG      30.30
RAWLINS        SUNNY     50  13  22 SW28G36   30.26R
SARATOGA       FAIR      52  19  28 W26G35    30.28F
LARAMIE        SUNNY     52  20  28 W20       30.24S
CHEYENNE       SUNNY     58  20  22 W24G32    30.16F
TORRINGTON     SUNNY     53  18  25 CALM      30.07F
PINE BLUFFS    FAIR      57  23  26 SW13      30.15F

$$



USA.gov is the U.S. government's official web portal to all federal, state and local government web resources and services.